QTR5A OTHH-KIAH

Flight info

Callsign QTR5A
Flight time N/A
Altitude 34000
Route PATOM L934 DAVUS L602 TASMI DCT ALPET L718 KABAN UL718 ULSAB UL614 EZS UW710 SIV UL615 VADEN Y520 LUKOV DCT XENIT DCT BABIT DCT SASAL DCT LAMSI L604 MOOCE/N0457F240 L604 ANELA/N0486F340 L604 RELBI L602 SPY DCT MONIL DCT MOLIX DCT EMLON L602 NALAX L46 GETNO DCT IOM/N0455F240 L10 BELZU/N0483F340 DCT SOVED DCT PIKIL/M085F340 DCT 56N020W 57N030W 57N040W 55N050W DCT LOMSI/N0488F340 N668A TAFFY/N0488F380 DCT KAYCC DCT KYLOH DCT BAF Q448 PTW J48 CSN DCT FANPO Q40 NIOLA/N0483F400 Q40 AEX DOOBI3
Aircraft A35K/H-SDE2E3GHIJ3J4J5LM1ORWXY/LB1D1

Departure

Time 2026-04-30 06:57
Airport Hamad International Airport (OTHH)

Arrival

Time N/A
Airport George Bush Intercontinental Airport (KIAH)
Time Latitude Longitude Altitude Speed Heading
2026-04-30 06:30 25.27100 51.61477 36 ft 0 kts 338°
2026-04-30 06:45 25.27093 51.61480 34 ft 4 kts 338°
2026-04-30 06:45 25.27069 51.61491 33 ft 4 kts 334°
2026-04-30 06:46 25.27046 51.61505 34 ft 4 kts 341°
2026-04-30 06:46 25.27023 51.61505 32 ft 4 kts 24°
2026-04-30 06:46 25.27007 51.61487 33 ft 4 kts 75°
2026-04-30 06:46 25.27002 51.61465 32 ft 1 kts 68°
2026-04-30 06:47 25.27000 51.61461 32 ft 0 kts 68°
2026-04-30 06:49 25.27001 51.61462 32 ft 0 kts 68°
2026-04-30 06:49 25.27004 51.61471 32 ft 2 kts 68°
2026-04-30 06:49 25.27013 51.61496 31 ft 4 kts 68°
2026-04-30 06:50 25.27027 51.61533 35 ft 6 kts 68°
2026-04-30 06:50 25.27044 51.61582 36 ft 8 kts 68°
2026-04-30 06:50 25.27067 51.61643 35 ft 9 kts 68°
2026-04-30 06:50 25.27044 51.61700 35 ft 9 kts 142°
2026-04-30 06:51 25.26982 51.61734 35 ft 11 kts 158°
2026-04-30 06:51 25.26907 51.61768 35 ft 13 kts 158°
2026-04-30 06:51 25.26818 51.61808 35 ft 15 kts 158°
2026-04-30 06:51 25.26715 51.61853 35 ft 17 kts 158°
2026-04-30 06:52 25.26599 51.61905 35 ft 19 kts 158°
2026-04-30 06:52 25.26471 51.61960 35 ft 20 kts 159°
2026-04-30 06:52 25.26343 51.62015 35 ft 20 kts 158°
2026-04-30 06:52 25.26217 51.62071 36 ft 19 kts 158°
2026-04-30 06:53 25.26092 51.62126 36 ft 19 kts 158°
2026-04-30 06:53 25.25968 51.62181 36 ft 20 kts 158°
2026-04-30 06:53 25.25841 51.62237 35 ft 20 kts 158°
2026-04-30 06:53 25.25713 51.62293 35 ft 20 kts 158°
2026-04-30 06:54 25.25588 51.62348 35 ft 18 kts 158°
2026-04-30 06:54 25.25492 51.62392 35 ft 11 kts 149°
2026-04-30 06:54 25.25477 51.62440 35 ft 6 kts 85°
2026-04-30 06:54 25.25491 51.62489 34 ft 7 kts 69°
2026-04-30 06:55 25.25510 51.62545 34 ft 9 kts 68°
2026-04-30 06:55 25.25534 51.62612 32 ft 10 kts 69°
2026-04-30 06:55 25.25566 51.62668 33 ft 4 kts 14°
2026-04-30 06:55 25.25583 51.62661 33 ft 0 kts 339°
2026-04-30 06:56 25.25716 51.62603 32 ft 51 kts 338°
2026-04-30 06:56 25.26245 51.62371 33 ft 114 kts 338°
2026-04-30 06:56 25.27173 51.61961 32 ft 171 kts 339°
2026-04-30 06:57 25.28374 51.61426 510 ft 187 kts 338°
2026-04-30 06:57 25.29573 51.60897 1275 ft 189 kts 340°
2026-04-30 06:57 25.30858 51.60339 1782 ft 205 kts 339°
2026-04-30 06:57 25.32222 51.59741 2052 ft 218 kts 339°
2026-04-30 06:58 25.33705 51.59165 2147 ft 236 kts 351°
2026-04-30 06:58 25.35362 51.59389 2398 ft 245 kts 14°
2026-04-30 06:58 25.37015 51.59906 2809 ft 250 kts 12°
2026-04-30 06:58 25.38715 51.60439 3167 ft 257 kts 12°
2026-04-30 06:59 25.40445 51.61001 3578 ft 262 kts 12°
2026-04-30 06:59 25.42209 51.61587 3983 ft 267 kts 12°
2026-04-30 06:59 25.44002 51.62191 4400 ft 272 kts 12°
2026-04-30 06:59 25.45827 51.62810 4773 ft 277 kts 12°
2026-04-30 07:00 25.47678 51.63436 5174 ft 279 kts 12°
2026-04-30 07:00 25.49570 51.63929 5582 ft 281 kts
2026-04-30 07:00 25.51497 51.64358 6003 ft 283 kts
2026-04-30 07:00 25.53411 51.64791 6418 ft 286 kts
2026-04-30 07:01 25.55367 51.65247 6834 ft 288 kts
2026-04-30 07:01 25.57339 51.65681 7259 ft 290 kts
2026-04-30 07:01 25.59333 51.65633 7642 ft 287 kts 346°
2026-04-30 07:01 25.61293 51.65197 8096 ft 288 kts 343°
2026-04-30 07:02 25.63255 51.64707 8570 ft 290 kts 343°
2026-04-30 07:02 25.65235 51.64214 9032 ft 293 kts 343°
2026-04-30 07:02 25.67234 51.63723 9509 ft 296 kts 343°
2026-04-30 07:02 25.69255 51.63231 9973 ft 298 kts 342°
2026-04-30 07:03 25.71307 51.62731 10308 ft 307 kts 342°
2026-04-30 07:03 25.73391 51.62053 10489 ft 317 kts 333°
2026-04-30 07:03 25.75471 51.61116 10681 ft 329 kts 332°
2026-04-30 07:03 25.77618 51.60101 10852 ft 342 kts 332°
2026-04-30 07:04 25.79849 51.59048 11046 ft 354 kts 332°
2026-04-30 07:04 25.82148 51.57953 11231 ft 365 kts 330°
2026-04-30 07:04 25.84322 51.56483 11391 ft 368 kts 315°
2026-04-30 07:04 25.85988 51.54387 11545 ft 370 kts 301°
2026-04-30 07:05 25.88622 51.49414 12225 ft 375 kts 294°
2026-04-30 07:05 25.89808 51.46833 12714 ft 376 kts 293°
2026-04-30 07:05 25.90989 51.44234 13149 ft 378 kts 293°
2026-04-30 07:06 25.92190 51.41625 13557 ft 380 kts 294°
2026-04-30 07:06 25.93416 51.39009 13944 ft 383 kts 294°
2026-04-30 07:06 25.94648 51.36420 14329 ft 385 kts 294°
2026-04-30 07:06 25.95937 51.33753 14710 ft 388 kts 295°
2026-04-30 07:07 25.97462 51.31304 15073 ft 395 kts 306°
2026-04-30 07:07 25.99397 51.29103 15419 ft 400 kts 312°
2026-04-30 07:07 26.01486 51.27031 15743 ft 405 kts 315°
2026-04-30 07:07 26.03668 51.25022 16082 ft 408 kts 316°
2026-04-30 07:08 26.05890 51.23045 16455 ft 409 kts 316°
2026-04-30 07:08 26.08121 51.21074 16801 ft 411 kts 316°
2026-04-30 07:08 26.10365 51.19083 17099 ft 414 kts 316°
2026-04-30 07:08 26.12617 51.17066 17414 ft 416 kts 315°
2026-04-30 07:09 26.14872 51.15031 17732 ft 418 kts 315°
2026-04-30 07:09 26.17135 51.12979 18042 ft 420 kts 315°
2026-04-30 07:09 26.19376 51.10940 18323 ft 422 kts 315°
2026-04-30 07:09 26.21686 51.08835 18619 ft 424 kts 315°
2026-04-30 07:10 26.23940 51.06780 18924 ft 424 kts 315°
2026-04-30 07:10 26.26228 51.04692 19259 ft 424 kts 315°
2026-04-30 07:10 26.28498 51.02588 19551 ft 426 kts 314°
2026-04-30 07:10 26.30774 51.00459 19857 ft 427 kts 314°
2026-04-30 07:11 26.33049 50.98321 20169 ft 428 kts 314°
2026-04-30 07:11 26.35331 50.96174 20467 ft 430 kts 314°
2026-04-30 07:11 26.37619 50.94021 20779 ft 431 kts 314°
2026-04-30 07:11 26.39913 50.91866 21095 ft 432 kts 314°
2026-04-30 07:12 26.42224 50.89699 21428 ft 433 kts 314°
2026-04-30 07:12 26.44536 50.87532 21775 ft 434 kts 314°
2026-04-30 07:12 26.46826 50.85385 22051 ft 437 kts 315°
2026-04-30 07:12 26.49166 50.83191 22359 ft 438 kts 315°
2026-04-30 07:13 26.51507 50.80994 22656 ft 440 kts 315°
2026-04-30 07:13 26.53852 50.78792 22976 ft 442 kts 315°
2026-04-30 07:13 26.56205 50.76580 23260 ft 443 kts 315°
2026-04-30 07:13 26.58572 50.74354 23545 ft 445 kts 315°
2026-04-30 07:14 26.60940 50.72127 23815 ft 446 kts 314°
2026-04-30 07:14 26.63318 50.69889 24092 ft 447 kts 314°
2026-04-30 07:14 26.65707 50.67642 24306 ft 450 kts 314°
2026-04-30 07:14 26.68113 50.65377 24521 ft 452 kts 314°
2026-04-30 07:15 26.70493 50.63133 24742 ft 454 kts 314°
2026-04-30 07:15 26.72915 50.60847 24969 ft 457 kts 314°
2026-04-30 07:15 26.75355 50.58544 25229 ft 459 kts 313°
2026-04-30 07:15 26.77799 50.56237 25501 ft 461 kts 313°
2026-04-30 07:16 26.80253 50.53920 25795 ft 462 kts 313°
2026-04-30 07:16 26.82720 50.51589 26060 ft 464 kts 313°
2026-04-30 07:16 26.85192 50.49252 26319 ft 466 kts 313°
2026-04-30 07:16 26.87680 50.46899 26565 ft 469 kts 313°
2026-04-30 07:17 26.90180 50.44535 26818 ft 471 kts 313°
2026-04-30 07:17 26.92661 50.42194 27075 ft 473 kts 312°
2026-04-30 07:17 26.97712 50.37412 27577 ft 477 kts 312°
2026-04-30 07:18 27.00249 50.35009 27846 ft 478 kts 312°
2026-04-30 07:18 27.02802 50.32589 28090 ft 480 kts 312°
2026-04-30 07:18 27.05361 50.30161 28318 ft 482 kts 312°
2026-04-30 07:18 27.07927 50.27725 28541 ft 484 kts 311°
2026-04-30 07:19 27.10505 50.25277 28756 ft 486 kts 311°
2026-04-30 07:19 27.13091 50.22821 29010 ft 487 kts 311°
2026-04-30 07:19 27.15673 50.20370 29410 ft 485 kts 311°
2026-04-30 07:19 27.18278 50.17962 29787 ft 486 kts 313°
2026-04-30 07:20 27.20983 50.15673 30065 ft 488 kts 315°
2026-04-30 07:20 27.23709 50.13472 30298 ft 489 kts 315°
2026-04-30 07:20 27.26481 50.11263 30536 ft 488 kts 315°
2026-04-30 07:20 27.29244 50.09052 30770 ft 487 kts 315°
2026-04-30 07:21 27.31993 50.06828 31004 ft 486 kts 315°
2026-04-30 07:21 27.34727 50.04593 31237 ft 485 kts 314°
2026-04-30 07:21 27.37448 50.02348 31433 ft 484 kts 314°
2026-04-30 07:21 27.40117 50.00059 31656 ft 482 kts 313°
2026-04-30 07:22 27.45377 49.95381 31932 ft 483 kts 312°
2026-04-30 07:22 27.50680 49.90640 31956 ft 488 kts 312°
2026-04-30 07:23 27.56002 49.85934 31948 ft 485 kts 312°
2026-04-30 07:23 27.61320 49.81243 31936 ft 485 kts 312°
2026-04-30 07:24 27.66634 49.76551 31966 ft 485 kts 312°
2026-04-30 07:24 27.71942 49.71857 31947 ft 484 kts 312°
2026-04-30 07:25 27.77230 49.67174 31947 ft 483 kts 312°
2026-04-30 07:25 27.82517 49.62479 31947 ft 483 kts 312°
2026-04-30 07:26 27.87779 49.57772 31950 ft 482 kts 312°
2026-04-30 07:26 27.93032 49.53067 31949 ft 482 kts 312°
2026-04-30 07:27 27.98283 49.48362 31952 ft 481 kts 312°
2026-04-30 07:27 28.03533 49.43658 31955 ft 481 kts 312°
2026-04-30 07:28 28.08742 49.38937 31955 ft 480 kts 311°
2026-04-30 07:28 28.13887 49.34221 31958 ft 479 kts 311°
2026-04-30 07:29 28.19075 49.29465 31980 ft 480 kts 311°
2026-04-30 07:29 28.24256 49.24721 31954 ft 478 kts 311°
2026-04-30 07:30 28.32020 49.17612 31968 ft 478 kts 311°
2026-04-30 07:31 28.37187 49.12867 31967 ft 478 kts 311°
2026-04-30 07:31 28.42580 49.08371 31971 ft 483 kts 315°
2026-04-30 07:32 28.48140 49.04072 31963 ft 484 kts 316°
2026-04-30 07:32 28.53733 48.99795 31979 ft 484 kts 316°
2026-04-30 07:33 28.58366 48.96250 31967 ft 483 kts 316°
2026-04-30 07:33 28.63932 48.91975 31965 ft 482 kts 316°
2026-04-30 07:34 28.70394 48.86999 31992 ft 482 kts 316°
2026-04-30 07:34 28.75046 48.83411 31968 ft 482 kts 316°
2026-04-30 07:35 28.80560 48.79155 31969 ft 481 kts 316°
2026-04-30 07:35 28.86117 48.74886 31967 ft 482 kts 316°
2026-04-30 07:36 28.91690 48.70622 31971 ft 481 kts 316°
2026-04-30 07:36 28.97250 48.66361 31969 ft 481 kts 316°
2026-04-30 07:37 29.02803 48.62095 31967 ft 481 kts 316°
2026-04-30 07:37 29.08357 48.57821 31969 ft 480 kts 316°
2026-04-30 07:38 29.13867 48.53574 31974 ft 480 kts 316°
2026-04-30 07:38 29.19409 48.49299 31971 ft 480 kts 316°
2026-04-30 07:39 29.24946 48.45021 31969 ft 479 kts 316°
2026-04-30 07:39 29.30465 48.40753 31963 ft 478 kts 316°
2026-04-30 07:40 29.35971 48.36487 31970 ft 478 kts 316°
2026-04-30 07:40 29.41472 48.32220 31966 ft 477 kts 316°
2026-04-30 07:41 29.46993 48.28074 31966 ft 480 kts 320°
2026-04-30 07:41 29.52836 48.24290 31966 ft 483 kts 322°
2026-04-30 07:42 29.58717 48.20564 31964 ft 481 kts 321°
2026-04-30 07:42 29.64530 48.16795 31958 ft 479 kts 321°
2026-04-30 07:43 29.70316 48.12981 31955 ft 479 kts 320°
2026-04-30 07:43 29.76085 48.09159 31960 ft 478 kts 320°
2026-04-30 07:44 29.81857 48.05336 31956 ft 478 kts 320°
2026-04-30 07:44 29.87580 48.01542 31955 ft 478 kts 320°
2026-04-30 07:45 29.93342 47.97718 31949 ft 478 kts 321°
2026-04-30 07:45 29.99086 47.93876 31948 ft 475 kts 318°
2026-04-30 07:46 30.04093 47.89185 31949 ft 456 kts 305°
2026-04-30 07:46 30.08336 47.83786 31953 ft 453 kts 303°
2026-04-30 07:47 30.12439 47.78282 31952 ft 452 kts 302°
2026-04-30 07:47 30.16525 47.72769 31952 ft 452 kts 303°
2026-04-30 07:48 30.20596 47.67304 31959 ft 452 kts 303°
2026-04-30 07:48 30.24702 47.61805 31959 ft 451 kts 303°
2026-04-30 07:49 30.28801 47.56309 31956 ft 451 kts 303°
2026-04-30 07:49 30.32899 47.50808 31995 ft 451 kts 303°
2026-04-30 07:50 30.36986 47.45312 31961 ft 451 kts 303°
2026-04-30 07:50 30.41085 47.39792 31961 ft 451 kts 303°
2026-04-30 07:51 30.45174 47.34279 31961 ft 451 kts 303°
2026-04-30 07:51 30.49241 47.28784 31967 ft 451 kts 303°
2026-04-30 07:52 30.53330 47.23255 31963 ft 451 kts 303°
2026-04-30 07:52 30.57414 47.17725 31957 ft 451 kts 303°
2026-04-30 07:53 30.61496 47.12189 31972 ft 451 kts 303°
2026-04-30 07:53 30.65573 47.06652 31968 ft 451 kts 303°
2026-04-30 07:54 30.69645 47.01113 31964 ft 451 kts 303°
2026-04-30 07:54 30.73716 46.95569 31990 ft 451 kts 303°
2026-04-30 07:55 30.77754 46.90061 31968 ft 450 kts 303°
2026-04-30 07:55 30.81818 46.84511 31963 ft 450 kts 303°
2026-04-30 07:56 30.85876 46.78960 31963 ft 450 kts 303°
2026-04-30 07:56 30.89934 46.73400 31967 ft 451 kts 303°
2026-04-30 07:57 30.93999 46.67824 31966 ft 451 kts 303°
2026-04-30 07:57 30.98063 46.62243 31972 ft 451 kts 303°
2026-04-30 07:58 31.02128 46.56649 31969 ft 452 kts 303°
2026-04-30 07:58 31.06194 46.51048 31974 ft 452 kts 303°
2026-04-30 07:59 31.10228 46.45484 31978 ft 452 kts 303°
2026-04-30 07:59 31.14288 46.39874 31983 ft 453 kts 303°
2026-04-30 08:00 31.20477 46.31503 31992 ft 457 kts 308°
2026-04-30 08:00 31.25225 46.26485 31990 ft 461 kts 311°
2026-04-30 08:01 31.30099 46.21578 31994 ft 464 kts 312°
2026-04-30 08:01 31.35011 46.16671 31991 ft 464 kts 312°
2026-04-30 08:02 31.42353 46.09297 32009 ft 464 kts 312°
2026-04-30 08:03 31.52145 45.99408 32005 ft 465 kts 312°
2026-04-30 08:04 31.57038 45.94454 32004 ft 466 kts 312°
2026-04-30 08:04 31.61917 45.89509 32003 ft 466 kts 312°
2026-04-30 08:05 31.66822 45.84532 32001 ft 466 kts 312°
2026-04-30 08:05 31.71732 45.79540 32002 ft 468 kts 313°
2026-04-30 08:06 31.76651 45.74533 31998 ft 467 kts 312°
2026-04-30 08:06 31.81562 45.69530 32035 ft 467 kts 313°
2026-04-30 08:07 31.86475 45.64511 32003 ft 469 kts 313°
2026-04-30 08:07 31.91401 45.59474 32000 ft 469 kts 313°
2026-04-30 08:08 31.96324 45.54436 32013 ft 469 kts 313°
2026-04-30 08:08 32.01243 45.49394 31994 ft 468 kts 313°
2026-04-30 08:09 32.06117 45.44388 31994 ft 468 kts 313°
2026-04-30 08:09 32.11025 45.39339 32000 ft 469 kts 313°
2026-04-30 08:10 32.15951 45.34265 32001 ft 469 kts 313°
2026-04-30 08:10 32.20865 45.29197 32004 ft 469 kts 313°
2026-04-30 08:11 32.25782 45.24116 32007 ft 470 kts 313°
2026-04-30 08:11 32.30714 45.19013 31990 ft 471 kts 313°
2026-04-30 08:12 32.35603 45.13949 32022 ft 470 kts 313°
2026-04-30 08:12 32.40528 45.08838 32004 ft 471 kts 313°
2026-04-30 08:13 32.45458 45.03714 32007 ft 472 kts 313°
2026-04-30 08:13 32.50387 44.98583 32022 ft 472 kts 314°
2026-04-30 08:14 32.55335 44.93424 32003 ft 474 kts 314°
2026-04-30 08:14 32.60288 44.88255 32007 ft 474 kts 314°
2026-04-30 08:15 32.65237 44.83081 31998 ft 474 kts 314°
2026-04-30 08:15 32.70180 44.77905 32001 ft 474 kts 313°
2026-04-30 08:16 32.75088 44.72757 31998 ft 474 kts 313°
2026-04-30 08:16 32.80027 44.67569 31999 ft 474 kts 313°
2026-04-30 08:17 32.84961 44.62377 32002 ft 474 kts 314°
2026-04-30 08:17 32.89907 44.57164 31994 ft 475 kts 314°
2026-04-30 08:18 32.94853 44.51946 31994 ft 475 kts 314°
2026-04-30 08:18 32.99798 44.46720 31993 ft 475 kts 314°
2026-04-30 08:19 33.04735 44.41494 32001 ft 475 kts 314°
2026-04-30 08:19 33.09679 44.36251 31990 ft 476 kts 314°
2026-04-30 08:20 33.14659 44.31103 31992 ft 479 kts 319°
2026-04-30 08:20 33.20509 44.27184 31997 ft 488 kts 335°
2026-04-30 08:21 33.27080 44.24911 31992 ft 498 kts 348°
2026-04-30 08:21 33.34007 44.24101 31993 ft 501 kts 351°
2026-04-30 08:22 33.40981 44.23530 31999 ft 502 kts 352°
2026-04-30 08:22 33.47944 44.22964 31991 ft 500 kts 352°
2026-04-30 08:23 33.54841 44.22369 31985 ft 500 kts 352°
2026-04-30 08:23 33.61786 44.21750 31990 ft 499 kts 352°
2026-04-30 08:24 33.68713 44.21131 31988 ft 499 kts 352°
2026-04-30 08:24 33.75641 44.20511 31987 ft 499 kts 352°
2026-04-30 08:25 33.82569 44.19891 31991 ft 498 kts 352°
2026-04-30 08:25 33.89489 44.19272 31991 ft 498 kts 352°
2026-04-30 08:26 33.96349 44.18656 31993 ft 498 kts 352°
2026-04-30 08:26 34.03256 44.18034 31994 ft 497 kts 352°
2026-04-30 08:27 34.10160 44.17412 31995 ft 496 kts 352°
2026-04-30 08:27 34.17051 44.16790 31996 ft 496 kts 352°
2026-04-30 08:28 34.23939 44.16168 31996 ft 496 kts 353°
2026-04-30 08:28 34.30771 44.15549 31998 ft 496 kts 353°
2026-04-30 08:29 34.36529 44.15027 32001 ft 496 kts 353°
2026-04-30 08:29 34.44519 44.14302 32005 ft 495 kts 353°
2026-04-30 08:30 34.51250 44.12881 32006 ft 489 kts 339°
2026-04-30 08:30 34.57569 44.09910 32009 ft 487 kts 334°
2026-04-30 08:31 34.62737 44.07211 32006 ft 486 kts 334°
2026-04-30 08:31 34.68927 44.03920 32009 ft 485 kts 334°
2026-04-30 08:32 34.75120 44.00641 32010 ft 485 kts 334°
2026-04-30 08:32 34.81313 43.97379 32012 ft 485 kts 334°
2026-04-30 08:33 34.87500 43.94121 32014 ft 484 kts 335°
2026-04-30 08:33 34.93681 43.90861 32016 ft 484 kts 334°
2026-04-30 08:34 34.99861 43.87595 32019 ft 484 kts 334°
2026-04-30 08:34 35.06037 43.84326 32018 ft 484 kts 334°
2026-04-30 08:35 35.12215 43.81049 32019 ft 483 kts 335°
2026-04-30 08:35 35.18380 43.77774 32023 ft 483 kts 335°
2026-04-30 08:36 35.24500 43.74518 32025 ft 483 kts 335°
2026-04-30 08:36 35.30661 43.71237 32025 ft 483 kts 335°
2026-04-30 08:37 35.36819 43.67963 32025 ft 482 kts 335°
2026-04-30 08:37 35.42967 43.64686 32024 ft 482 kts 335°
2026-04-30 08:38 35.49112 43.61405 32022 ft 482 kts 335°
2026-04-30 08:38 35.55266 43.58114 32023 ft 482 kts 335°
2026-04-30 08:39 35.61376 43.54842 32027 ft 481 kts 335°
2026-04-30 08:39 35.67519 43.51547 32028 ft 481 kts 335°
2026-04-30 08:40 35.73653 43.48250 32027 ft 481 kts 335°
2026-04-30 08:40 35.79754 43.44967 32025 ft 481 kts 335°
2026-04-30 08:41 35.85890 43.41658 32030 ft 481 kts 335°
2026-04-30 08:41 35.92022 43.38347 32030 ft 480 kts 335°
2026-04-30 08:42 35.98147 43.35033 32031 ft 480 kts 335°
2026-04-30 08:42 36.04266 43.31717 32037 ft 480 kts 335°
2026-04-30 08:43 36.10345 43.28418 32027 ft 479 kts 335°
2026-04-30 08:43 36.16443 43.25087 32030 ft 478 kts 334°
2026-04-30 08:44 36.22524 43.21731 32028 ft 478 kts 334°
2026-04-30 08:44 36.28610 43.18371 32039 ft 478 kts 334°
2026-04-30 08:45 36.34680 43.15019 32026 ft 477 kts 334°
2026-04-30 08:45 36.40739 43.11671 32042 ft 476 kts 334°
2026-04-30 08:46 36.46798 43.08317 32030 ft 477 kts 334°
2026-04-30 08:46 36.52855 43.04958 32046 ft 477 kts 334°
2026-04-30 08:47 36.58867 43.01617 32044 ft 476 kts 334°
2026-04-30 08:47 36.64915 42.98252 32047 ft 475 kts 334°
2026-04-30 08:48 36.70952 42.94887 32043 ft 475 kts 334°
2026-04-30 08:48 36.76989 42.91516 32046 ft 475 kts 334°
2026-04-30 08:49 36.82994 42.88190 32056 ft 474 kts 334°
2026-04-30 08:49 36.89048 42.84861 32062 ft 474 kts 334°
2026-04-30 08:50 36.95089 42.81531 32060 ft 474 kts 334°
2026-04-30 08:50 37.01125 42.78192 32064 ft 474 kts 334°
2026-04-30 08:51 37.07163 42.74844 32063 ft 474 kts 334°
2026-04-30 08:51 37.13160 42.71513 32072 ft 474 kts 334°
2026-04-30 08:52 37.19188 42.68154 32067 ft 474 kts 334°
2026-04-30 08:52 37.24769 42.63844 32078 ft 469 kts 319°
2026-04-30 08:53 37.29209 42.57870 32073 ft 468 kts 308°
2026-04-30 08:53 37.33159 42.51385 32076 ft 468 kts 306°
2026-04-30 08:54 37.37033 42.44827 32076 ft 467 kts 306°
2026-04-30 08:54 37.40901 42.38297 32074 ft 467 kts 306°
2026-04-30 08:55 37.44800 42.31758 32075 ft 467 kts 306°
2026-04-30 08:55 37.48694 42.25225 32083 ft 467 kts 306°
2026-04-30 08:56 37.52577 42.18684 32244 ft 466 kts 306°
2026-04-30 08:56 37.54515 42.15413 32451 ft 466 kts 306°
2026-04-30 08:56 37.56451 42.12145 32664 ft 465 kts 306°
2026-04-30 08:56 37.58387 42.08876 32877 ft 464 kts 306°
2026-04-30 08:57 37.60317 42.05611 33096 ft 464 kts 306°
2026-04-30 08:57 37.62218 42.02395 33341 ft 462 kts 306°
2026-04-30 08:57 37.64133 41.99150 33615 ft 461 kts 306°
2026-04-30 08:57 37.66046 41.95906 33894 ft 459 kts 306°
2026-04-30 08:58 37.67950 41.92675 34048 ft 460 kts 306°
2026-04-30 08:58 37.71784 41.86155 34075 ft 462 kts 306°
2026-04-30 08:59 37.75613 41.79633 34073 ft 461 kts 306°
2026-04-30 08:59 37.79435 41.73114 34073 ft 461 kts 306°
2026-04-30 09:00 37.83254 41.66591 34074 ft 461 kts 306°
2026-04-30 09:00 37.87073 41.60053 34064 ft 461 kts 306°
2026-04-30 09:01 37.90881 41.53522 34066 ft 461 kts 305°
2026-04-30 09:01 37.94695 41.46969 34084 ft 462 kts 305°
2026-04-30 09:02 38.00380 41.37174 34066 ft 461 kts 305°
2026-04-30 09:02 38.04179 41.30614 34072 ft 461 kts 305°
2026-04-30 09:03 38.07970 41.24056 34070 ft 461 kts 305°
2026-04-30 09:03 38.11754 41.17493 34068 ft 460 kts 305°
2026-04-30 09:04 38.14991 41.10525 34079 ft 458 kts 293°
2026-04-30 09:04 38.17457 41.03066 34069 ft 458 kts 291°
2026-04-30 09:05 38.19791 40.95529 34072 ft 458 kts 291°
2026-04-30 09:05 38.22106 40.87986 34072 ft 458 kts 291°
2026-04-30 09:06 38.24437 40.80431 34075 ft 459 kts 291°
2026-04-30 09:06 38.26737 40.72856 34075 ft 459 kts 290°
2026-04-30 09:07 38.29000 40.65253 34071 ft 459 kts 290°
2026-04-30 09:07 38.31262 40.57652 34075 ft 460 kts 290°
2026-04-30 09:08 38.33518 40.50075 34077 ft 460 kts 290°
2026-04-30 09:08 38.35782 40.42467 34082 ft 459 kts 290°
2026-04-30 09:09 38.38040 40.34857 34075 ft 459 kts 290°
2026-04-30 09:09 38.40304 40.27203 34072 ft 464 kts 290°
2026-04-30 09:10 38.42577 40.19494 34073 ft 465 kts 290°
2026-04-30 09:10 38.44843 40.11790 34068 ft 463 kts 290°
2026-04-30 09:11 38.47101 40.04095 34068 ft 463 kts 290°
2026-04-30 09:11 38.49352 39.96399 34063 ft 463 kts 290°
2026-04-30 09:12 38.51597 39.88697 34065 ft 463 kts 290°
2026-04-30 09:12 38.53841 39.80984 34063 ft 462 kts 290°
2026-04-30 09:13 38.56075 39.73273 34066 ft 462 kts 290°
2026-04-30 09:13 38.58293 39.65599 34063 ft 463 kts 289°
2026-04-30 09:14 38.60519 39.57878 34069 ft 462 kts 289°
2026-04-30 09:14 38.62734 39.50173 34060 ft 462 kts 290°
2026-04-30 09:15 38.64979 39.42476 34060 ft 462 kts 290°
2026-04-30 09:15 38.67233 39.34779 34076 ft 462 kts 290°
2026-04-30 09:16 38.69481 39.27074 34053 ft 462 kts 290°
2026-04-30 09:16 38.72191 39.19683 34059 ft 462 kts 298°
2026-04-30 09:17 38.75472 39.12578 34061 ft 463 kts 300°
2026-04-30 09:17 38.78827 39.05546 34057 ft 462 kts 300°
2026-04-30 09:18 38.82182 38.98515 34056 ft 462 kts 300°
2026-04-30 09:18 38.85520 38.91479 34062 ft 462 kts 300°
2026-04-30 09:19 38.88873 38.84449 34053 ft 462 kts 300°
2026-04-30 09:19 38.92225 38.77425 34056 ft 461 kts 300°
2026-04-30 09:20 38.95547 38.70437 34059 ft 461 kts 300°
2026-04-30 09:20 38.98888 38.63390 34061 ft 462 kts 300°
2026-04-30 09:21 39.01684 38.57477 34061 ft 462 kts 300°
2026-04-30 09:21 39.05000 38.50452 34065 ft 462 kts 300°
2026-04-30 09:22 39.08333 38.43374 34065 ft 464 kts 299°
2026-04-30 09:22 39.11675 38.36262 34063 ft 465 kts 299°
2026-04-30 09:23 39.15016 38.29137 34066 ft 465 kts 299°
2026-04-30 09:23 39.18353 38.22004 34068 ft 465 kts 299°
2026-04-30 09:24 39.21690 38.14853 34071 ft 466 kts 299°
2026-04-30 09:24 39.25024 38.07696 34070 ft 466 kts 299°
2026-04-30 09:25 39.28355 38.00530 34069 ft 465 kts 299°
2026-04-30 09:25 39.31674 37.93369 34064 ft 465 kts 299°
2026-04-30 09:26 39.34990 37.86201 34063 ft 465 kts 299°
2026-04-30 09:26 39.38303 37.79023 34069 ft 465 kts 299°
2026-04-30 09:27 39.41605 37.71853 34056 ft 464 kts 299°
2026-04-30 09:27 39.44883 37.64720 34060 ft 464 kts 299°
2026-04-30 09:28 39.48175 37.57536 34061 ft 464 kts 299°
2026-04-30 09:28 39.51453 37.50342 34067 ft 463 kts 298°
2026-04-30 09:29 39.54720 37.43155 34045 ft 463 kts 298°
2026-04-30 09:29 39.57986 37.35961 34062 ft 463 kts 298°
2026-04-30 09:30 39.61252 37.28762 34049 ft 462 kts 298°
2026-04-30 09:30 39.64499 37.21565 34070 ft 462 kts 298°
2026-04-30 09:31 39.67740 37.14364 34116 ft 462 kts 298°
2026-04-30 09:31 39.70955 37.07209 34119 ft 462 kts 298°
2026-04-30 09:32 39.74189 36.99997 34164 ft 462 kts 298°
2026-04-30 09:32 39.77377 36.92738 34153 ft 461 kts 295°
2026-04-30 09:33 39.79493 36.84924 34170 ft 458 kts 282°
2026-04-30 09:33 39.80723 36.76846 34153 ft 457 kts 279°
2026-04-30 09:34 39.81804 36.68684 34123 ft 457 kts 279°
2026-04-30 09:34 39.82873 36.60524 34099 ft 457 kts 279°
2026-04-30 09:35 39.83958 36.52354 34062 ft 458 kts 279°
2026-04-30 09:35 39.85045 36.44201 34052 ft 457 kts 279°
2026-04-30 09:36 39.86120 36.36107 34054 ft 456 kts 279°
2026-04-30 09:36 39.87272 36.27976 34056 ft 456 kts 280°
2026-04-30 09:37 39.88434 36.19848 34056 ft 456 kts 279°
2026-04-30 09:37 39.89508 36.11712 34060 ft 455 kts 279°
2026-04-30 09:38 39.90562 36.03586 34055 ft 455 kts 279°
2026-04-30 09:38 39.91614 35.95494 34059 ft 456 kts 279°
2026-04-30 09:39 39.92679 35.87338 34056 ft 456 kts 279°
2026-04-30 09:39 39.93733 35.79183 34057 ft 456 kts 278°
2026-04-30 09:40 39.94779 35.71034 34054 ft 456 kts 278°
2026-04-30 09:40 39.95819 35.62891 34059 ft 456 kts 278°
2026-04-30 09:41 39.96855 35.54740 34060 ft 456 kts 278°
2026-04-30 09:41 39.97885 35.46592 34054 ft 455 kts 278°
2026-04-30 09:42 39.98900 35.38513 34060 ft 454 kts 278°
2026-04-30 09:42 39.99908 35.30375 34063 ft 454 kts 278°
2026-04-30 09:43 40.00870 35.22233 34058 ft 454 kts 277°
2026-04-30 09:43 40.01823 35.14073 34058 ft 455 kts 277°
2026-04-30 09:44 40.02778 35.05911 34059 ft 454 kts 277°
2026-04-30 09:44 40.03728 34.97774 34060 ft 454 kts 277°
2026-04-30 09:45 40.04673 34.89634 34056 ft 454 kts 277°
2026-04-30 09:45 40.05611 34.81505 34062 ft 454 kts 277°
2026-04-30 09:46 40.06544 34.73364 34060 ft 453 kts 277°
2026-04-30 09:46 40.07469 34.65238 34062 ft 454 kts 277°
2026-04-30 09:47 40.08394 34.57053 34061 ft 453 kts 277°
2026-04-30 09:47 40.09307 34.48936 34065 ft 453 kts 277°
2026-04-30 09:48 40.10215 34.40803 34068 ft 453 kts 277°
2026-04-30 09:48 40.11120 34.32635 34062 ft 453 kts 277°
2026-04-30 09:49 40.12018 34.24481 34060 ft 453 kts 277°
2026-04-30 09:49 40.12911 34.16326 34062 ft 453 kts 277°
2026-04-30 09:50 40.13792 34.08229 34060 ft 453 kts 276°
2026-04-30 09:50 40.14672 34.00080 34062 ft 453 kts 276°
2026-04-30 09:51 40.15574 33.91933 34059 ft 453 kts 278°
2026-04-30 09:51 40.16697 33.83822 34062 ft 454 kts 279°
2026-04-30 09:52 40.17736 33.75698 34063 ft 453 kts 276°
2026-04-30 09:52 40.18545 33.67535 34064 ft 453 kts 276°
2026-04-30 09:53 40.19333 33.59367 34062 ft 453 kts 276°
2026-04-30 09:53 40.20144 33.51194 34069 ft 453 kts 276°
2026-04-30 09:54 40.20967 33.43027 34066 ft 453 kts 276°
2026-04-30 09:54 40.21782 33.34908 34067 ft 453 kts 276°
2026-04-30 09:55 40.22595 33.26732 34070 ft 453 kts 276°
2026-04-30 09:55 40.23402 33.18554 34074 ft 453 kts 276°
2026-04-30 09:56 40.24387 33.10411 34072 ft 455 kts 282°
2026-04-30 09:56 40.26246 33.02488 34074 ft 456 kts 286°
2026-04-30 09:57 40.28282 32.94629 34076 ft 456 kts 287°
2026-04-30 09:57 40.30342 32.86776 34090 ft 456 kts 286°
2026-04-30 09:58 40.32383 32.78919 34071 ft 455 kts 286°
2026-04-30 09:58 40.34406 32.71067 34068 ft 455 kts 286°
2026-04-30 09:59 40.38428 32.55350 34068 ft 454 kts 286°
2026-04-30 10:00 40.41415 32.43614 34068 ft 454 kts 285°
2026-04-30 10:01 40.44403 32.31822 34066 ft 454 kts 285°
2026-04-30 10:02 40.47380 32.20013 34065 ft 454 kts 285°
2026-04-30 10:02 40.49551 32.12209 34064 ft 455 kts 289°
2026-04-30 10:03 40.51913 32.04489 34066 ft 455 kts 289°
2026-04-30 10:03 40.54255 31.96755 34067 ft 455 kts 288°
2026-04-30 10:04 40.56554 31.89006 34067 ft 455 kts 288°
2026-04-30 10:04 40.58827 31.81243 34063 ft 454 kts 287°
2026-04-30 10:05 40.60829 31.73373 34074 ft 453 kts 285°
2026-04-30 10:05 40.62701 31.65457 34073 ft 453 kts 285°
2026-04-30 10:06 40.64602 31.57547 34078 ft 453 kts 285°
2026-04-30 10:06 40.66535 31.49644 34076 ft 453 kts 285°
2026-04-30 10:07 40.68472 31.41747 34087 ft 453 kts 285°
2026-04-30 10:07 40.70402 31.33852 34098 ft 453 kts 285°
2026-04-30 10:08 40.72326 31.25948 34099 ft 453 kts 285°
2026-04-30 10:08 40.74238 31.18087 34100 ft 453 kts 285°
2026-04-30 10:09 40.76148 31.10178 34111 ft 453 kts 285°
2026-04-30 10:09 40.78054 31.02263 34113 ft 453 kts 285°
2026-04-30 10:10 40.79954 30.94345 34114 ft 453 kts 285°
2026-04-30 10:10 40.81851 30.86419 34125 ft 453 kts 285°
2026-04-30 10:11 40.83743 30.78491 34121 ft 453 kts 285°
2026-04-30 10:11 40.85628 30.70555 34129 ft 453 kts 285°
2026-04-30 10:12 40.87441 30.62657 34135 ft 452 kts 283°
2026-04-30 10:12 40.88872 30.54576 34134 ft 451 kts 280°
2026-04-30 10:13 40.90210 30.46484 34140 ft 451 kts 281°
2026-04-30 10:13 40.91598 30.38399 34142 ft 451 kts 281°
2026-04-30 10:14 40.93023 30.30331 34143 ft 451 kts 281°
2026-04-30 10:14 40.95154 30.18222 34147 ft 451 kts 281°
2026-04-30 10:15 40.96563 30.10150 34148 ft 450 kts 281°
2026-04-30 10:15 40.97729 30.03440 34148 ft 450 kts 281°
2026-04-30 10:16 40.99129 29.95361 34149 ft 451 kts 281°
2026-04-30 10:17 41.01190 29.83226 34145 ft 451 kts 281°
2026-04-30 10:17 41.03235 29.71076 34143 ft 451 kts 281°
2026-04-30 10:18 41.04594 29.62973 34139 ft 451 kts 281°
2026-04-30 10:19 41.06632 29.50871 34137 ft 451 kts 281°
2026-04-30 10:19 41.07989 29.42763 34131 ft 451 kts 281°
2026-04-30 10:20 41.09341 29.34649 34134 ft 450 kts 281°
2026-04-30 10:20 41.11356 29.22478 34142 ft 451 kts 281°
2026-04-30 10:21 41.13132 29.14492 34137 ft 454 kts 291°
2026-04-30 10:21 41.16233 29.07175 34139 ft 458 kts 299°
2026-04-30 10:22 41.19743 29.00102 34132 ft 458 kts 301°
2026-04-30 10:22 41.23301 28.93077 34134 ft 458 kts 300°
2026-04-30 10:23 41.26840 28.86034 34130 ft 458 kts 300°
2026-04-30 10:23 41.30355 28.78977 34129 ft 458 kts 300°
2026-04-30 10:24 41.33862 28.71906 34116 ft 458 kts 300°
2026-04-30 10:24 41.37356 28.64845 34135 ft 456 kts 300°
2026-04-30 10:25 41.40841 28.57789 34132 ft 456 kts 300°
2026-04-30 10:25 41.44322 28.50723 34124 ft 456 kts 300°
2026-04-30 10:26 41.47769 28.43712 34141 ft 453 kts 300°
2026-04-30 10:26 41.51216 28.36697 34146 ft 452 kts 300°
2026-04-30 10:27 41.54650 28.29681 34145 ft 451 kts 300°
2026-04-30 10:27 41.58077 28.22659 34154 ft 451 kts 300°
2026-04-30 10:28 41.61490 28.15656 34149 ft 449 kts 299°
2026-04-30 10:28 41.64893 28.08657 34151 ft 449 kts 299°
2026-04-30 10:29 41.68288 28.01657 34149 ft 449 kts 299°
2026-04-30 10:29 41.71659 27.94693 34149 ft 449 kts 299°
2026-04-30 10:30 41.75047 27.87676 34151 ft 448 kts 299°
2026-04-30 10:30 41.78428 27.80659 34146 ft 448 kts 299°
2026-04-30 10:31 41.81804 27.73634 34149 ft 448 kts 299°
2026-04-30 10:31 41.85169 27.66621 34150 ft 447 kts 299°
2026-04-30 10:32 41.88522 27.59611 34144 ft 446 kts 299°
2026-04-30 10:32 41.91869 27.52598 34146 ft 446 kts 299°
2026-04-30 10:33 41.95209 27.45583 34151 ft 446 kts 299°
2026-04-30 10:33 41.98540 27.38574 34166 ft 444 kts 299°